Погода в Богословке

Россия / Пензенская область     53°12′46″N   44°48′21″E
темп.,
°C
ветер,
м/с
пор.,
м/с
влажн.,
%
обл.,
%
осадки,
мм/ч
давл.,
гПа
погр.,
м
16 мая, вс
вс1600:00+16ююз346647 0.0 101553
03:00+15ю33686 0.0 101536
06:00+15ю377144 0.0 1015164
09:00+21ю575719 0.0 1016396
12:00+25ю7104196 0.0 10161121
15:00+26ю610458 0.0 10151421
18:00+24юз236414 0.0 101552
21:00+19юв22747 0.0 101511
17 мая, пн
пн1700:00+18вюв227314 0.0 101515
03:00+16юв236775 0.0 101620
06:00+18ююв336796 0.0 101668
09:00+24ююв354997 0.0 1017320
12:00+27ююв583580 0.0 10171179
15:00+27юв584183 0.0 10161450
18:00+23юв4855100 0.0 1015130
21:00+19юв335787 0.0 101630
18 мая, вт
вт1800:00+17вюв335658 0.0 101639
03:00+15вюв345698 0.0 101643
06:00+16вюв4126213 0.0 1015239
09:00+23юв6114821 0.0 1015539
12:00+26юв6104139 0.0 1014833
15:00+27юв610475 0.0 10141186
18:00+24вюв410525 0.0 1013218
21:00+20вюв411595 0.0 1014181
19 мая, ср
ср1900:00+18вюв414560 0.0 1013247
03:00+17в413495 0.0 1013207
06:00+18вюв4145858 0.0 1013312
09:00+24вюв712525 0.0 1012561
12:00+27юв813460 0.0 10122240
15:00+28вюв812415 0.0 10111903
18:00+24вюв7144713 0.0 1010460
21:00+19ююв6136996 0.3 1011358
20 мая, чт
чт2000:00+16юв3377100 0.3 101147
03:00+15юв369699 3.0 1011137
06:00+16ююз469259 0.1 1011358
09:00+17ю577194 0.1 10131051
12:00+18ю676399 0.1 10141507
15:00+19ююз6860100 0.4 10141279
18:00+17ююз58775 0.8 1015629
21:00+13ююз35895 1.1 101785